Location: Alfords
(31.4624°N, 83.9238°W)
Time: 08:28:12
(UTC+00:00)

Hubble Space Telescope - Pass Details

Date: 06 October 2021
Orbit: 535 x 538 km, 28.5° (Epoch: 17 October)

Event Time Altitude Azimuth Distance (km) Brightness Sun altitude
Exits shadow 10:23:46 - 203° (SSW) 2,097 3.5 -15.5°
Reaches altitude 10° 10:25:01 10° 191° (S) 1,776 3.3 -15.3°
Maximum altitude 10:27:22 15° 156° (SSE) 1,492 3.3 -14.8°
Drops below altitude 10° 10:29:44 10° 121° (ESE) 1,779 4.3 -14.3°
Sets 10:32:48 0° 97° (E) 2,670 6.2 -13.6°
